Weather History for South Bend, IN

Change the Weather History Date:

Monday, July 14, 2014

  Actual Average Record
Temperature  
Mean Temperature 72 °F 73 °F  
Max Temperature 80 °F 83 °F 108 °F (1936)
Min Temperature 63 °F 63 °F 48 °F (1930)
Degree Days  
Heating Degree Days 0 0  
Month to date heating degree days 2 0  
Since 1 June heating degree days 19 44  
Since 1 July heating degree days 2 0  
Cooling Degree Days 7 8  
Month to date cooling degree days 80 112  
Year to date cooling degree days 381 333  
Since 1 June cooling degree days 296 277  
Growing Degree Days 22 (Base 50)    
Moisture  
Dew Point 62 °F    
Average Humidity 71    
Maximum Humidity 93    
Minimum Humidity 48    
Precipitation  
Precipitation 0.46 in 0.13 in 3.16 in (1937)
Month to date precipitation 1.52 1.74  
Year to date precipitation 25.74 19.25  
Sea Level Pressure  
Sea Level Pressure 29.84 in    
Wind  
Wind Speed 6 mph (WSW)    
Max Wind Speed 21 mph    
Max Gust Speed 24 mph    
Visibility 9 miles    
Events Rain , Thunderstorm    
T = Trace of Precipitation, MM = Missing Value Source: NWS Daily Summary

Daily Weather History Graph

Daily Weather History Graph

Search for Another Location

Airport:

Trip Planner

Search our weather history database for the weather conditions in past years. The results will help you decide how hot, cold, wet, or windy it might be!

Date:

Astronomy

Jul. 14, 2014 Rise Set
Actual Time 6:23 AM EDT 9:18 PM EDT
Civil Twilight 5:49 AM EDT 9:51 PM EDT
Nautical Twilight 5:07 AM EDT 10:33 PM EDT
Astronomical Twilight 4:18 AM EDT 11:22 PM EDT
Moon 10:44 PM EDT (7/14) 9:07 AM EDT (7/14)
Length of Visible Light 16h 01m
Length of Day
14h 55m
Waning Gibbous, 93% of the Moon is Illuminated
Jul 14
Waning Gibbous
Jul 18
Last Quarter
Jul 26
New
Aug 3
First Quarter
Aug 10
Full

Hourly Weather History & Observations

Time (EDT) Temp. Dew Point Humidity Pressure Visibility Wind Dir Wind Speed Gust Speed Precip Events Conditions
12:54 AM 73.0 °F 64.9 °F 76% 29.88 in 10.0 mi WSW 8.1 mph - 0.00 in   Partly Cloudy
1:54 AM 72.0 °F 64.9 °F 78% 29.88 in 10.0 mi WSW 5.8 mph - N/A   Mostly Cloudy
2:54 AM 70.0 °F 64.0 °F 81% 29.87 in 10.0 mi West 5.8 mph - N/A   Mostly Cloudy
3:54 AM 71.1 °F 63.0 °F 75% 29.88 in 10.0 mi West 9.2 mph - N/A   Mostly Cloudy
4:54 AM 69.1 °F 63.0 °F 81% 29.88 in 10.0 mi WNW 5.8 mph - N/A   Mostly Cloudy
5:54 AM 64.9 °F 62.1 °F 90% 29.87 in 10.0 mi NW 4.6 mph - N/A   Partly Cloudy
6:54 AM 64.9 °F 61.0 °F 87% 29.87 in 9.0 mi SSW 3.5 mph - N/A   Clear
7:54 AM 68.0 °F 63.0 °F 84% 29.86 in 10.0 mi Calm Calm - N/A   Clear
8:54 AM 72.0 °F 62.1 °F 71% 29.87 in 10.0 mi South 3.5 mph - N/A   Clear
9:54 AM 75.0 °F 59.0 °F 57% 29.87 in 10.0 mi South 4.6 mph - N/A   Mostly Cloudy
10:54 AM 77.0 °F 57.9 °F 52% 29.87 in 10.0 mi WSW 5.8 mph - N/A   Mostly Cloudy
11:54 AM 78.1 °F 57.9 °F 50% 29.86 in 10.0 mi South 5.8 mph - N/A   Mostly Cloudy
12:54 PM 78.1 °F 57.9 °F 50% 29.84 in 10.0 mi SSW 3.5 mph - N/A   Mostly Cloudy
1:54 PM 75.0 °F 57.9 °F 55% 29.83 in 10.0 mi NNE 15.0 mph 20.7 mph N/A   Overcast
2:10 PM 75.0 °F 57.0 °F 53% 29.83 in 10.0 mi NNE 12.7 mph - N/A   Mostly Cloudy
2:54 PM 72.0 °F 57.0 °F 59% 29.80 in 10.0 mi NNE 10.4 mph - N/A   Mostly Cloudy
3:06 PM 70.0 °F 59.0 °F 68% 29.81 in 10.0 mi NNE 10.4 mph - 0.00 in Rain , Thunderstorm Light Thunderstorms and Rain
3:17 PM 66.9 °F 61.0 °F 81% 29.84 in 1.5 mi NW 19.6 mph - 0.02 in Rain Rain
3:21 PM 64.9 °F 61.0 °F 87% 29.83 in 1.5 mi North 20.7 mph - 0.09 in Rain , Thunderstorm Heavy Rain
3:39 PM 64.4 °F 62.6 °F 94% 29.81 in 1.5 mi East 9.2 mph - N/A Rain Rain
3:51 PM 66.2 °F 62.6 °F 88% 29.82 in 10.0 mi ENE 6.9 mph - 0.44 in   Scattered Clouds
4:35 PM 66.2 °F 62.6 °F 88% 29.82 in 6.0 mi ENE 5.8 mph - N/A Rain , Thunderstorm Light Rain
4:50 PM 66.2 °F 64.4 °F 94% 29.82 in 7.0 mi SE 8.1 mph - 0.02 in Rain Light Rain
4:54 PM 66.9 °F 64.0 °F 90% 29.81 in 7.0 mi SE 6.9 mph - 0.02 in Rain , Thunderstorm Light Rain
5:13 PM 69.1 °F 66.9 °F 93% 29.82 in 10.0 mi SE 6.9 mph - 0.00 in   Overcast
5:54 PM 69.8 °F 64.4 °F 83% 29.81 in 10.0 mi SE 5.8 mph - N/A   Mostly Cloudy
6:54 PM 73.0 °F 64.0 °F 73% 29.78 in 10.0 mi WSW 6.9 mph - N/A   Clear
7:54 PM 72.0 °F 64.0 °F 76% 29.79 in 10.0 mi WSW 4.6 mph - N/A   Clear
8:54 PM 70.0 °F 64.0 °F 81% 29.79 in 10.0 mi West 5.8 mph - N/A   Clear
9:54 PM 64.9 °F 61.0 °F 87% 29.79 in 10.0 mi WNW 5.8 mph - N/A   Clear
10:54 PM 64.9 °F 61.0 °F 87% 29.81 in 9.0 mi WNW 5.8 mph - N/A   Scattered Clouds
11:54 PM 64.9 °F 60.1 °F 84% 29.80 in 10.0 mi NW 9.2 mph - N/A   Mostly Cloudy